Location: St. Louis
(38.6270°N, 90.1994°W)
Time: 01:03:15
(UTC-05:00)

ISS - Pass Details

Date: 23 April 2014
Orbit: 402 x 404 km, 51.6° (Epoch: 23 May)

Event Time Altitude Azimuth Distance (km) Brightness Sun altitude
Rises 21:04:59 0° 296° (WNW) 2,348 2.4 -15.0°
Reaches altitude 10° 21:07:25 10° 279° (W) 1,474 0.6 -15.5°
Maximum altitude 21:09:56 20° 229° (SW) 1,001 -1.2 -15.9°
Enters shadow 21:11:40 14° 190° (S) 1,242 -1.1 -16.2°
